Weather History for LIRA - October, 2010

Change the Weather History Date:

Wednesday, October 27, 2010

  Actual Average Record
Temperature  
Mean Temperature 56 °F -  
Max Temperature 64 °F 62 °F 80 °F (2006)
Min Temperature 44 °F 45 °F 42 °F (1996)
Degree Days  
Heating Degree Days 9    
Growing Degree Days 6 (Base 50)    
Moisture  
Dew Point 42 °F    
Average Humidity 63    
Maximum Humidity 76    
Minimum Humidity 45    
Precipitation  
Precipitation 0.00 in 0.17 in - ()
Sea Level Pressure  
Sea Level Pressure 30.00 in    
Wind  
Wind Speed 8 mph ()    
Max Wind Speed 15 mph    
Max Gust Speed -    
Visibility 6.2 miles    
Events      
Averages and records for this station are not official NWS values.
T = Trace of Precipitation, MM = Missing Value Source: Averaged Metar Reports

Daily Weather History Graph

Daily Weather History Graph

Search for Another Location

Airport or City:

Trip Planner

Search our weather history database for the weather conditions in past years. The results will help you decide how hot, cold, wet, or windy it might be!

Date:

Astronomy

Oct. 27, 2010 Rise Set
Actual Time 7:35 AM CEST 6:10 PM CEST
Civil Twilight 7:06 AM CEST 6:39 PM CEST
Nautical Twilight 6:34 AM CEST 7:12 PM CEST
Astronomical Twilight 6:01 AM CEST 7:44 PM CEST
Moon 9:12 PM CEST (10/27) 11:58 AM CEST (10/27)
Length of Visible Light 11h 32m
Length of Day
10h 35m
Waning Gibbous, 81% of the Moon is Illuminated
Oct 27
Waning Gibbous
Oct 30
Last Quarter
Nov 6
New
Nov 13
First Quarter
Nov 21
Full

Hourly Weather History & Observations

Time (CEST) Temp. Windchill Dew Point Humidity Pressure Visibility Wind Dir Wind Speed Gust Speed Precip Events Conditions
12:15 AM 51.8 °F - 44.6 °F 76% 29.95 in 6.2 mi NNE 8.1 mph - N/A   Scattered Clouds
12:45 AM 51.8 °F - 44.6 °F 76% 29.95 in 6.2 mi North 5.8 mph - N/A   Scattered Clouds
1:15 AM 51.8 °F - 44.6 °F 76% 29.95 in 6.2 mi North 8.1 mph - N/A   Scattered Clouds
1:45 AM 51.8 °F - 44.6 °F 76% 29.95 in 6.2 mi North 10.4 mph - N/A   Scattered Clouds
2:15 AM 51.8 °F - 44.6 °F 76% 29.95 in 6.2 mi North 8.1 mph - N/A   Scattered Clouds
2:45 AM 51.8 °F - 44.6 °F 76% 29.95 in 6.2 mi North 6.9 mph - N/A   Scattered Clouds
3:15 AM 51.8 °F - 44.6 °F 76% 29.95 in 6.2 mi North 10.4 mph - N/A   Scattered Clouds
3:45 AM 50.0 °F - 42.8 °F 76% 29.95 in 6.2 mi North 6.9 mph - N/A   Scattered Clouds
4:15 AM 50.0 °F - 42.8 °F 76% 29.95 in 6.2 mi North 5.8 mph - N/A   Scattered Clouds
4:45 AM 50.0 °F - 42.8 °F 76% 29.95 in 6.2 mi NNE 5.8 mph - N/A   Scattered Clouds
5:15 AM 50.0 °F - 42.8 °F 76% 29.95 in 6.2 mi NNE 6.9 mph - N/A   Scattered Clouds
5:45 AM 50.0 °F - 42.8 °F 76% 29.95 in 6.2 mi North 8.1 mph - N/A   Scattered Clouds
6:15 AM 50.0 °F - 42.8 °F 76% 29.95 in 6.2 mi North 8.1 mph - N/A   Scattered Clouds
6:45 AM 50.0 °F - 42.8 °F 76% 29.95 in 6.2 mi North 10.4 mph - N/A   Partly Cloudy
7:15 AM 50.0 °F - 42.8 °F 76% 29.95 in 6.2 mi NNE 9.2 mph - N/A   Partly Cloudy
7:45 AM 50.0 °F - 41.0 °F 71% 29.95 in 6.2 mi NNE 6.9 mph - N/A   Partly Cloudy
8:15 AM 50.0 °F - 41.0 °F 71% 29.98 in 6.2 mi NNE 8.1 mph - N/A   Partly Cloudy
8:45 AM 51.8 °F - 42.8 °F 71% 29.98 in 6.2 mi NNE 9.2 mph - N/A   Partly Cloudy
9:15 AM 51.8 °F - 41.0 °F 67% 29.98 in 6.2 mi NNE 12.7 mph - N/A   Partly Cloudy
9:45 AM 53.6 °F - 42.8 °F 67% 29.98 in 6.2 mi NNE 9.2 mph - N/A   Partly Cloudy
10:15 AM 55.4 °F - 42.8 °F 63% 30.01 in 6.2 mi North 12.7 mph - N/A   Partly Cloudy
10:45 AM 57.2 °F - 42.8 °F 59% 30.01 in 6.2 mi North 10.4 mph - N/A   Partly Cloudy
11:15 AM 59.0 °F - 44.6 °F 59% 30.01 in 6.2 mi North 15.0 mph - N/A   Partly Cloudy
11:45 AM 60.8 °F - 42.8 °F 52% 30.01 in 6.2 mi NW 15.0 mph - N/A   Partly Cloudy
12:15 PM 60.8 °F - 44.6 °F 55% 30.01 in 6.2 mi NNW 13.8 mph - N/A   Partly Cloudy
12:45 PM 62.6 °F - 42.8 °F 48% 30.01 in 6.2 mi North 9.2 mph - N/A   Partly Cloudy
1:15 PM 62.6 °F - 42.8 °F 48% 30.04 in 6.2 mi North 9.2 mph - N/A   Partly Cloudy
1:45 PM 62.6 °F - 42.8 °F 48% 30.04 in 6.2 mi NNW 12.7 mph - N/A   Partly Cloudy
2:15 PM 62.6 °F - 42.8 °F 48% 30.01 in 6.2 mi North 13.8 mph - N/A   Partly Cloudy
2:45 PM 64.4 °F - 42.8 °F 45% 30.01 in 6.2 mi NNW 13.8 mph - N/A   Partly Cloudy
3:15 PM 62.6 °F - 41.0 °F 45% 30.01 in 6.2 mi NNW 13.8 mph - N/A   Partly Cloudy
3:45 PM 62.6 °F - 41.0 °F 45% 30.01 in 6.2 mi NNW 11.5 mph - N/A   Partly Cloudy
4:15 PM 60.8 °F - 41.0 °F 48% 30.01 in 6.2 mi North 11.5 mph - N/A   Partly Cloudy
4:45 PM 60.8 °F - 41.0 °F 48% 30.01 in 6.2 mi NNW 11.5 mph - N/A   Partly Cloudy
5:15 PM 59.0 °F - 39.2 °F 48% 30.01 in 6.2 mi NNW 12.7 mph - N/A   Partly Cloudy
5:45 PM 59.0 °F - 39.2 °F 48% 30.04 in 6.2 mi North 10.4 mph - N/A   Partly Cloudy
6:15 PM 57.2 °F - 39.2 °F 51% 30.04 in - NNW 8.1 mph - N/A   Clear
6:45 PM 55.4 °F - 37.4 °F 51% 30.01 in - North 6.9 mph - N/A   Clear
7:15 PM 55.4 °F - 37.4 °F 51% 30.01 in - North 5.8 mph - N/A   Clear
7:45 PM 53.6 °F - 37.4 °F 54% 30.04 in - NNE 5.8 mph - N/A   Clear
8:15 PM 53.6 °F - 39.2 °F 58% 30.04 in - NNE 4.6 mph - N/A   Clear
8:45 PM 55.4 °F - 41.0 °F 58% 30.04 in - NNE 5.8 mph - N/A   Clear
9:15 PM 51.8 °F - 39.2 °F 62% 30.04 in 6.2 mi North 8.1 mph - N/A   Partly Cloudy
9:45 PM 51.8 °F - 39.2 °F 62% 30.06 in - NNE 6.9 mph - N/A   Clear
10:15 PM 51.8 °F - 39.2 °F 62% 30.06 in - NNE 5.8 mph - N/A   Clear
10:45 PM 50.0 °F - 37.4 °F 62% 30.06 in - North 4.6 mph - N/A   Clear
11:15 PM 48.2 °F - 39.2 °F 71% 30.06 in - NNE 5.8 mph - N/A   Clear
11:45 PM 44.6 °F 41.4 °F 37.4 °F 76% 30.06 in - NNE 5.8 mph - N/A   Clear